Le Mars, IA

7:05 PM CST on November 15, 2019 (GMT -0600)
Le Mars Municipal

Weather History for KLRJ - September, 2019

Change the Weather History Date:

Wednesday, September 18, 2019

  Actual Average Record
Temperature  
Mean Temperature 73 °F -  
Max Temperature 80 °F 76 °F 95 °F (1998)
Min Temperature 66 °F 50 °F 33 °F (2012)
Cooling Degree Days 8    
Growing Degree Days 23 (Base 50)    
Moisture  
Dew Point 66 °F    
Average Humidity 77    
Maximum Humidity 100    
Minimum Humidity 45    
Precipitation  
Precipitation 0.07 in - - ()
Sea Level Pressure  
Sea Level Pressure 29.89 in    
Wind  
Wind Speed 12 mph (SW)    
Max Wind Speed 22 mph    
Max Gust Speed 32 mph    
Visibility 10 miles    
Events Rain    
Averages and records for this station are not official NWS values.
T = Trace of Precipitation, MM = Missing Value Source: NWS Daily Summary

Daily Weather History Graph

Daily Weather History Graph

Search for Another Location

Airport or City:

Astronomy

Sep. 18, 2019 Rise Set
Actual Time 7:07 AM CDT 7:29 PM CDT
Civil Twilight 6:39 AM CDT 7:57 PM CDT
Nautical Twilight 6:05 AM CDT 8:31 PM CDT
Astronomical Twilight 5:31 AM CDT 9:05 PM CDT
Moon 9:58 PM CDT (9/18) 11:17 AM CDT (9/18)
Length of Visible Light 13h 18m
Length of Day
12h 22m
Waning Gibbous, 82% of the Moon is Illuminated
Sep 18
Waning Gibbous
Sep 21
Last Quarter
Sep 28
New
Oct 5
First Quarter
Oct 13
Full

Hourly Weather History & Observations

Time (CDT) Temp. Heat Index Dew Point Humidity Pressure Visibility Wind Dir Wind Speed Gust Speed Precip Events Conditions
12:15 AM 77.0 °F - 69.8 °F 78% 29.83 in 10.0 mi SSE 19.6 mph 25.3 mph N/A   Partly Cloudy
12:35 AM 77.0 °F - 69.8 °F 78% 29.83 in 10.0 mi SSE 18.4 mph 27.6 mph N/A   Partly Cloudy
12:55 AM 78.8 °F - 69.8 °F 74% 29.83 in 10.0 mi South 18.4 mph 27.6 mph N/A   Scattered Clouds
1:15 AM 78.8 °F - 69.8 °F 74% 29.82 in 10.0 mi South 19.6 mph - N/A   Scattered Clouds
1:35 AM 77.0 °F - 69.8 °F 78% 29.83 in 9.0 mi South 21.9 mph 27.6 mph N/A   Scattered Clouds
1:55 AM 77.0 °F - 69.8 °F 78% 29.83 in 9.0 mi South 19.6 mph 31.1 mph N/A   Mostly Cloudy
2:15 AM 77.0 °F - 69.8 °F 78% 29.82 in 9.0 mi South 19.6 mph 26.5 mph N/A   Overcast
2:35 AM 75.2 °F - 71.6 °F 89% 29.82 in 10.0 mi South 21.9 mph - N/A   Mostly Cloudy
2:55 AM 75.2 °F - 71.6 °F 89% 29.81 in 10.0 mi South 20.7 mph 27.6 mph N/A   Scattered Clouds
3:15 AM 75.2 °F - 71.6 °F 89% 29.80 in 10.0 mi South 18.4 mph 27.6 mph N/A   Scattered Clouds
3:35 AM 75.2 °F - 71.6 °F 89% 29.80 in 10.0 mi South 21.9 mph - N/A   Mostly Cloudy
3:55 AM 73.4 °F - 71.6 °F 94% 29.79 in 7.0 mi South 21.9 mph 32.2 mph 0.01 in   Mostly Cloudy
4:15 AM 73.4 °F - 71.6 °F 94% 29.80 in 10.0 mi South 18.4 mph 27.6 mph N/A   Mostly Cloudy
4:35 AM 75.2 °F - 69.8 °F 83% 29.80 in 10.0 mi South 19.6 mph 27.6 mph N/A   Mostly Cloudy
4:55 AM 73.4 °F - 69.8 °F 88% 29.80 in 10.0 mi South 18.4 mph 26.5 mph N/A   Mostly Cloudy
5:15 AM 73.4 °F - 71.6 °F 94% 29.80 in 9.0 mi South 15.0 mph 25.3 mph N/A   Mostly Cloudy
5:35 AM 73.4 °F - 69.8 °F 88% 29.82 in 10.0 mi South 13.8 mph - N/A   Partly Cloudy
5:55 AM 71.6 °F - 69.8 °F 94% 29.83 in 10.0 mi SSW 6.9 mph 13.8 mph 0.01 in   Clear
6:15 AM 71.6 °F - 69.8 °F 94% 29.83 in 10.0 mi South 9.2 mph - N/A   Clear
6:35 AM 71.6 °F - 69.8 °F 94% 29.83 in 10.0 mi South 11.5 mph - N/A   Clear
6:55 AM 71.6 °F - 69.8 °F 94% 29.84 in 10.0 mi South 9.2 mph 16.1 mph N/A   Clear
7:15 AM 71.6 °F - 69.8 °F 94% 29.86 in 10.0 mi SSW 10.4 mph - N/A   Partly Cloudy
7:35 AM 71.6 °F - 69.8 °F 94% 29.86 in 10.0 mi SSW 10.4 mph 16.1 mph N/A   Partly Cloudy
7:55 AM 71.6 °F - 69.8 °F 94% 29.87 in 10.0 mi South 9.2 mph - N/A   Partly Cloudy
8:15 AM 71.6 °F - 69.8 °F 94% 29.88 in 10.0 mi South 5.8 mph - N/A   Clear
8:35 AM 71.6 °F - 69.8 °F 94% 29.89 in 9.0 mi SSW 5.8 mph - N/A   Clear
8:55 AM 73.4 °F - 71.6 °F 94% 29.89 in 10.0 mi SW 5.8 mph - N/A   Clear
9:15 AM 73.4 °F - 71.6 °F 94% 29.89 in 10.0 mi SW 6.9 mph - N/A   Clear
9:35 AM 75.2 °F - 71.6 °F 89% 29.90 in 10.0 mi WSW 4.6 mph - N/A   Clear
9:55 AM 77.0 °F - 69.8 °F 78% 29.91 in 10.0 mi WNW 9.2 mph - N/A   Partly Cloudy
10:15 AM 75.2 °F - 66.2 °F 73% 29.91 in 10.0 mi WNW 8.1 mph 15.0 mph N/A   Scattered Clouds
10:35 AM 75.2 °F - 62.6 °F 65% 29.92 in 10.0 mi NW 9.2 mph - N/A   Clear
10:55 AM 75.2 °F - 62.6 °F 65% 29.92 in 10.0 mi WNW 8.1 mph - N/A   Clear
11:15 AM 77.0 °F - 60.8 °F 57% 29.92 in 10.0 mi NW 8.1 mph - N/A   Clear
11:35 AM 77.0 °F - 60.8 °F 57% 29.93 in 10.0 mi West 8.1 mph - N/A   Clear
11:55 AM 77.0 °F - 60.8 °F 57% 29.92 in 10.0 mi Variable 4.6 mph - N/A   Clear
12:15 PM 75.2 °F - 59.0 °F 57% 29.93 in 10.0 mi West 5.8 mph - N/A   Partly Cloudy
12:35 PM 77.0 °F - 59.0 °F 54% 29.94 in - WNW 6.9 mph - N/A   Unknown
12:55 PM 77.0 °F - 60.8 °F 57% 29.95 in 10.0 mi Calm Calm - N/A   Unknown
1:15 PM 77.0 °F - 60.8 °F 57% 29.94 in 10.0 mi WNW 4.6 mph - N/A   Clear
1:35 PM 75.2 °F - 62.6 °F 65% 29.95 in 10.0 mi SW 4.6 mph - N/A   Scattered Clouds
1:55 PM 77.0 °F - 60.8 °F 57% 29.94 in 10.0 mi Calm Calm - N/A   Mostly Cloudy
2:15 PM 78.8 °F - 57.2 °F 47% 29.94 in 10.0 mi Variable 3.5 mph - N/A   Partly Cloudy
2:35 PM 80.6 °F 80.8 °F 57.2 °F 45% 29.94 in 10.0 mi Variable 3.5 mph - N/A   Clear
2:55 PM 80.6 °F 81.1 °F 59.0 °F 48% 29.93 in 10.0 mi SW 4.6 mph - N/A   Clear
3:15 PM 80.6 °F 80.8 °F 57.2 °F 45% 29.93 in 10.0 mi SSW 6.9 mph - N/A   Clear
3:55 PM 78.8 °F - 60.8 °F 54% 29.93 in 10.0 mi SSW 5.8 mph - N/A   Partly Cloudy
4:15 PM 80.6 °F 81.1 °F 59.0 °F 48% 29.93 in 10.0 mi SW 5.8 mph - N/A   Scattered Clouds
4:35 PM 80.6 °F 81.5 °F 60.8 °F 51% 29.92 in 10.0 mi West 5.8 mph - N/A   Partly Cloudy
4:55 PM 80.6 °F 81.5 °F 60.8 °F 51% 29.92 in 10.0 mi SW 8.1 mph - N/A   Clear
5:15 PM 80.6 °F 81.5 °F 60.8 °F 51% 29.92 in 10.0 mi Variable 5.8 mph - N/A   Clear
5:35 PM 80.6 °F 81.5 °F 60.8 °F 51% 29.92 in 10.0 mi SW 5.8 mph - N/A   Clear
5:55 PM 78.8 °F - 62.6 °F 57% 29.92 in 10.0 mi WSW 4.6 mph - N/A   Clear
6:15 PM 78.8 °F - 64.4 °F 61% 29.92 in 10.0 mi Calm Calm - N/A   Clear
6:35 PM 77.0 °F - 62.6 °F 61% 29.92 in 10.0 mi Calm Calm - N/A   Clear
6:55 PM 75.2 °F - 69.8 °F 83% 29.92 in 10.0 mi Calm Calm - N/A   Clear
7:15 PM 73.4 °F - 66.2 °F 78% 29.93 in 10.0 mi Calm Calm - N/A   Clear
7:35 PM 71.6 °F - 64.4 °F 78% 29.93 in 10.0 mi Calm Calm - N/A   Clear
7:55 PM 71.6 °F - 64.4 °F 78% 29.94 in 10.0 mi Calm Calm - N/A   Clear
8:15 PM 69.8 °F - 64.4 °F 83% 29.94 in 9.0 mi Calm Calm - N/A   Light Drizzle
8:35 PM 68.0 °F - 66.2 °F 94% 29.94 in 10.0 mi Calm Calm - N/A   Clear
8:55 PM 68.0 °F - 64.4 °F 88% 29.94 in 10.0 mi North 3.5 mph - N/A   Clear
9:15 PM 68.0 °F - 66.2 °F 94% 29.95 in 10.0 mi North 4.6 mph - N/A   Scattered Clouds
9:35 PM 68.0 °F - 64.4 °F 88% 29.95 in 10.0 mi North 3.5 mph - N/A   Partly Cloudy
9:55 PM 68.0 °F - 66.2 °F 94% 29.96 in 10.0 mi Calm Calm - N/A   Partly Cloudy
10:15 PM 68.0 °F - 66.2 °F 94% 29.95 in 10.0 mi NNE 3.5 mph - N/A   Scattered Clouds
10:35 PM 68.0 °F - 66.2 °F 94% 29.96 in 10.0 mi NNE 3.5 mph - N/A   Overcast
10:55 PM 68.0 °F - 66.2 °F 94% 29.96 in 10.0 mi Calm Calm - N/A   Mostly Cloudy
11:15 PM 68.0 °F - 68.0 °F 100% 29.97 in 10.0 mi West 4.6 mph - N/A   Mostly Cloudy
11:35 PM 66.2 °F - 66.2 °F 100% 29.97 in 1.0 mi ENE 8.1 mph - N/A Rain Heavy Rain
11:55 PM 66.2 °F - 66.2 °F 100% 29.97 in 10.0 mi Calm Calm - 0.05 in   Light Drizzle